| time (UTC) | temp F | wind direction | speed MPH | gust MPH | rain 1hr in | rain 24hr in | rain mn in | humidity % | barometer mb |
| 20260504202403 | 59 | 40 | 9.0 | 26.0 | 0.00 | 0.00 | 0.00 | 36 | 1010.6 |
| 20260504201903 | 58 | 28 | 10.0 | 26.0 | 0.00 | 0.00 | 0.00 | 38 | 1010.7 |
| 20260504200904 | 59 | 31 | 6.0 | 21.0 | 0.00 | 0.00 | 0.00 | 36 | 1010.5 |
| 20260504200404 | 59 | 19 | 12.0 | 21.0 | 0.00 | 0.00 | 0.00 | 37 | 1010.6 |
| 20260504195903 | 59 | 42 | 12.0 | 24.0 | 0.00 | 0.00 | 0.00 | 38 | 1010.6 |
| 20260504195403 | 58 | 35 | 8.0 | 25.0 | 0.00 | 0.00 | 0.00 | 38 | 1010.6 |
| 20260504194403 | 59 | 30 | 14.0 | 25.0 | 0.00 | 0.00 | 0.00 | 38 | 1010.5 |
| 20260504193903 | 59 | 8 | 20.0 | 25.0 | 0.00 | 0.00 | 0.00 | 38 | 1010.5 |
| 20260504193403 | 60 | 29 | 14.0 | 26.0 | 0.00 | 0.00 | 0.00 | 37 | 1010.4 |
| 20260504192904 | 59 | 5 | 13.0 | 35.0 | 0.00 | 0.00 | 0.00 | 37 | 1010.4 |
| 20260504191904 | 59 | 19 | 14.0 | 36.0 | 0.00 | 0.00 | 0.00 | 37 | 1010.3 |
| 20260504191404 | 59 | 27 | 18.0 | 37.0 | 0.00 | 0.00 | 0.00 | 38 | 1010.3 |
| 20260504190903 | 59 | 14 | 22.0 | 37.0 | 0.00 | 0.00 | 0.00 | 37 | 1010.3 |
| 20260504190403 | 60 | 30 | 17.0 | 37.0 | 0.00 | 0.00 | 0.00 | 34 | 1010.1 |
| 20260504185903 | 60 | 3 | 26.0 | 33.0 | 0.00 | 0.00 | 0.00 | 35 | 1010.0 |
| 20260504185404 | 59 | 1 | 23.0 | 36.0 | 0.00 | 0.00 | 0.00 | 36 | 1010.1 |
| 20260504184904 | 60 | 13 | 25.0 | 36.0 | 0.00 | 0.00 | 0.00 | 37 | 1010.1 |
| 20260504184404 | 60 | 358 | 18.0 | 36.0 | 0.00 | 0.00 | 0.00 | 35 | 1010.1 |
| 20260504183903 | 59 | 23 | 21.0 | 37.0 | 0.00 | 0.00 | 0.00 | 36 | 1010.1 |
| 20260504182903 | 60 | 1 | 22.0 | 38.0 | 0.00 | 0.00 | 0.00 | 34 | 1010.2 |
| 20260504182403 | 60 | 6 | 30.0 | 39.0 | 0.00 | 0.00 | 0.00 | 34 | 1010.0 |
| 20260504181903 | 61 | 5 | 28.0 | 39.0 | 0.00 | 0.00 | 0.00 | 34 | 1010.2 |
| 20260504181404 | 59 | 10 | 31.0 | 43.0 | 0.00 | 0.00 | 0.00 | 36 | 1010.1 |
| 20260504180903 | 60 | 352 | 32.0 | 43.0 | 0.00 | 0.00 | 0.00 | 36 | 1010.2 |
| 20260504180403 | 60 | 357 | 35.0 | 43.0 | 0.00 | 0.00 | 0.00 | 36 | 1009.9 |
| 20260504175904 | 62 | 12 | 29.0 | 44.0 | 0.00 | 0.00 | 0.00 | 33 | 1009.9 |
| 20260504175404 | 61 | 10 | 24.0 | 44.0 | 0.00 | 0.00 | 0.00 | 31 | 1009.9 |
| 20260504174903 | 60 | 11 | 33.0 | 44.0 | 0.00 | 0.00 | 0.00 | 32 | 1009.9 |
| 20260504174403 | 60 | 17 | 30.0 | 44.0 | 0.00 | 0.00 | 0.00 | 31 | 1010.0 |
| 20260504173903 | 60 | 14 | 26.0 | 43.0 | 0.00 | 0.00 | 0.00 | 31 | 1010.0 |
| 20260504172904 | 61 | 9 | 29.0 | 39.0 | 0.00 | 0.00 | 0.00 | 30 | 1009.9 |
| 20260504171904 | 64 | 356 | 18.0 | 29.0 | 0.00 | 0.00 | 0.00 | 25 | 1010.0 |
| 20260504171403 | 64 | 337 | 3.0 | 14.0 | 0.00 | 0.00 | 0.00 | 23 | 1009.6 |
| 20260504170904 | 65 | 1 | 6.0 | 18.0 | 0.00 | 0.00 | 0.00 | 22 | 1009.7 |
| 20260504170403 | 63 | 292 | 8.0 | 18.0 | 0.00 | 0.00 | 0.00 | 22 | 1009.6 |
| 20260504160403 | 62 | 322 | 5.0 | 13.0 | 0.00 | 0.00 | 0.00 | 23 | 1009.6 |
| 20260504150903 | 61 | 279 | 12.0 | 20.0 | 0.00 | 0.00 | 0.00 | 24 | 1009.7 |
| 20260504150404 | 62 | 323 | 13.0 | 18.0 | 0.00 | 0.00 | 0.00 | 24 | 1009.6 |
| 20260504140404 | 57 | 305 | 13.0 | 16.0 | 0.00 | 0.00 | 0.00 | 28 | 1009.7 |
| 20260504130403 | 50 | 259 | 8.0 | 13.0 | 0.00 | 0.00 | 0.00 | 34 | 1009.5 |
| 20260504110404 | 41 | 242 | 12.0 | 13.0 | 0.00 | 0.00 | 0.00 | 57 | 1009.2 |
| 20260504100403 | 40 | 246 | 7.0 | 9.0 | 0.00 | 0.00 | 0.00 | 62 | 1009.5 |
| 20260504081403 | 42 | 274 | 9.0 | 12.0 | 0.00 | 0.00 | 0.00 | 57 | 1010.7 |
| 20260504080903 | 41 | 267 | 8.0 | 10.0 | 0.00 | 0.00 | 0.00 | 59 | 1010.8 |
| 20260504045904 | 48 | 15 | 0.0 | 0.0 | 0.00 | 0.00 | 0.00 | 48 | 1012.3 |
| 20260504045403 | 48 | 15 | 0.0 | 2.0 | 0.00 | 0.00 | 0.00 | 47 | 1012.1 |
| 20260504044904 | 48 | 15 | 0.0 | 2.0 | 0.00 | 0.00 | 0.00 | 47 | 1012.3 |
| 20260504043903 | 48 | 17 | 2.0 | 7.0 | 0.00 | 0.00 | 0.00 | 46 | 1012.3 |
| 20260504043404 | 49 | 16 | 3.0 | 8.0 | 0.00 | 0.00 | 0.00 | 45 | 1012.4 |
| 20260504042904 | 49 | 11 | 6.0 | 8.0 | 0.00 | 0.00 | 0.00 | 46 | 1012.4 |
| 20260504042403 | 48 | 13 | 6.0 | 8.0 | 0.00 | 0.00 | 0.00 | 46 | 1012.4 |
| 20260504041904 | 49 | 20 | 5.0 | 8.0 | 0.00 | 0.00 | 0.00 | 45 | 1012.3 |
| 20260504041404 | 49 | 17 | 6.0 | 9.0 | 0.00 | 0.00 | 0.00 | 45 | 1012.4 |
| 20260504040903 | 50 | 21 | 5.0 | 9.0 | 0.00 | 0.00 | 0.00 | 44 | 1012.5 |
| 20260504040404 | 50 | 16 | 7.0 | 9.0 | 0.00 | 0.00 | 0.00 | 44 | 1012.5 |
| 20260504035904 | 50 | 20 | 5.0 | 8.0 | 0.00 | 0.00 | 0.00 | 44 | 1012.6 |
| 20260504034903 | 50 | 23 | 3.0 | 7.0 | 0.00 | 0.00 | 0.00 | 43 | 1012.3 |
| 20260504034404 | 51 | 34 | 2.0 | 5.0 | 0.00 | 0.00 | 0.00 | 43 | 1012.6 |
| 20260504033403 | 50 | 34 | 2.0 | 5.0 | 0.00 | 0.00 | 0.00 | 43 | 1012.5 |
| 20260504032904 | 51 | 44 | 3.0 | 7.0 | 0.00 | 0.00 | 0.00 | 43 | 1012.4 |
| 20260504032403 | 50 | 44 | 5.0 | 7.0 | 0.00 | 0.00 | 0.00 | 43 | 1012.4 |
| 20260504031404 | 51 | 53 | 6.0 | 8.0 | 0.00 | 0.00 | 0.00 | 42 | 1012.3 |
| 20260504030903 | 51 | 54 | 6.0 | 8.0 | 0.00 | 0.00 | 0.00 | 42 | 1012.3 |
| 20260504030404 | 51 | 42 | 5.0 | 10.0 | 0.00 | 0.00 | 0.00 | 42 | 1012.2 |
| 20260504025903 | 51 | 34 | 3.0 | 10.0 | 0.00 | 0.00 | 0.00 | 42 | 1012.2 |
| 20260504025403 | 52 | 46 | 7.0 | 12.0 | 0.00 | 0.00 | 0.00 | 41 | 1012.2 |
| 20260504024904 | 52 | 56 | 8.0 | 13.0 | 0.00 | 0.00 | 0.00 | 41 | 1012.3 |
| 20260504023904 | 53 | 48 | 9.0 | 14.0 | 0.00 | 0.00 | 0.00 | 39 | 1012.1 |
| 20260504023403 | 54 | 45 | 10.0 | 15.0 | 0.00 | 0.00 | 0.00 | 38 | 1012.3 |
| 20260504022903 | 55 | 47 | 10.0 | 16.0 | 0.00 | 0.00 | 0.00 | 37 | 1012.3 |
| 20260504022404 | 55 | 28 | 10.0 | 16.0 | 0.00 | 0.00 | 0.00 | 36 | 1012.4 |
| 20260504021903 | 56 | 40 | 11.0 | 16.0 | 0.00 | 0.00 | 0.00 | 35 | 1012.2 |
| 20260504020903 | 56 | 33 | 9.0 | 16.0 | 0.00 | 0.00 | 0.00 | 34 | 1012.2 |
| 20260504020403 | 57 | 32 | 10.0 | 20.0 | 0.00 | 0.00 | 0.00 | 34 | 1012.2 |
| 20260504015903 | 57 | 48 | 11.0 | 20.0 | 0.00 | 0.00 | 0.00 | 33 | 1012.0 |
| 20260504015404 | 58 | 23 | 10.0 | 20.0 | 0.00 | 0.00 | 0.00 | 33 | 1012.1 |
| 20260504014903 | 58 | 52 | 16.0 | 22.0 | 0.00 | 0.00 | 0.00 | 32 | 1012.1 |
| 20260504014404 | 58 | 49 | 14.0 | 23.0 | 0.00 | 0.00 | 0.00 | 32 | 1011.9 |
| 20260504013903 | 58 | 42 | 14.0 | 32.0 | 0.00 | 0.00 | 0.00 | 32 | 1012.0 |
| 20260504013404 | 59 | 31 | 14.0 | 33.0 | 0.00 | 0.00 | 0.00 | 32 | 1012.2 |
| 20260504012904 | 60 | 16 | 21.0 | 36.0 | 0.00 | 0.00 | 0.00 | 31 | 1012.1 |
| 20260504012403 | 61 | 15 | 28.0 | 36.0 | 0.00 | 0.00 | 0.00 | 28 | 1012.0 |
| 20260504011904 | 63 | 343 | 17.0 | 24.0 | 0.00 | 0.00 | 0.00 | 24 | 1012.0 |
| 20260504011403 | 63 | 7 | 10.0 | 21.0 | 0.00 | 0.00 | 0.00 | 22 | 1011.9 |
| 20260504010403 | 64 | 5 | 12.0 | 23.0 | 0.00 | 0.00 | 0.00 | 22 | 1011.8 |
| 20260504005903 | 63 | 20 | 10.0 | 23.0 | 0.00 | 0.00 | 0.00 | 22 | 1011.7 |
| 20260504005404 | 63 | 36 | 9.0 | 21.0 | 0.00 | 0.00 | 0.00 | 23 | 1011.8 |
| 20260504004903 | 63 | 28 | 10.0 | 24.0 | 0.00 | 0.00 | 0.00 | 23 | 1012.0 |
| 20260504004404 | 63 | 17 | 13.0 | 24.0 | 0.00 | 0.00 | 0.00 | 23 | 1012.1 |
| 20260504003903 | 64 | 32 | 14.0 | 26.0 | 0.00 | 0.00 | 0.00 | 23 | 1011.9 |
| 20260504003404 | 64 | 13 | 14.0 | 26.0 | 0.00 | 0.00 | 0.00 | 23 | 1012.0 |
| 20260504002903 | 64 | 17 | 17.0 | 24.0 | 0.00 | 0.00 | 0.00 | 23 | 1011.9 |
| 20260504002404 | 64 | 15 | 17.0 | 25.0 | 0.00 | 0.00 | 0.00 | 22 | 1011.8 |
| 20260504001904 | 64 | 10 | 16.0 | 31.0 | 0.00 | 0.00 | 0.00 | 22 | 1011.9 |
| 20260504001403 | 65 | 351 | 15.0 | 31.0 | 0.00 | 0.00 | 0.00 | 21 | 1011.9 |
| 20260504000904 | 67 | 319 | 23.0 | 29.0 | 0.00 | 0.00 | 0.00 | 15 | 1011.8 |
| 20260504000403 | 66 | 296 | 16.0 | 26.0 | 0.00 | 0.00 | 0.00 | 15 | 1011.7 |
| 20260503235904 | 67 | 307 | 17.0 | 31.0 | 0.00 | 0.00 | 0.00 | 15 | 1011.8 |
| 20260503235403 | 67 | 292 | 18.0 | 31.0 | 0.00 | 0.00 | 0.00 | 15 | 1011.8 |
| 20260503234904 | 67 | 325 | 20.0 | 26.0 | 0.00 | 0.00 | 0.00 | 15 | 1012.0 |
| 20260503234403 | 67 | 327 | 21.0 | 25.0 | 0.00 | 0.00 | 0.00 | 15 | 1011.7 |
| 20260503233404 | 67 | 314 | 13.0 | 21.0 | 0.00 | 0.00 | 0.00 | 14 | 1011.8 |
| 20260503232404 | 67 | 276 | 12.0 | 22.0 | 0.00 | 0.00 | 0.00 | 14 | 1012.1 |
| 20260503231903 | 67 | 304 | 13.0 | 21.0 | 0.00 | 0.00 | 0.00 | 15 | 1011.9 |
| 20260503231404 | 67 | 274 | 12.0 | 20.0 | 0.00 | 0.00 | 0.00 | 14 | 1012.1 |
| 20260503230903 | 67 | 236 | 9.0 | 20.0 | 0.00 | 0.00 | 0.00 | 14 | 1012.0 |
| 20260503230404 | 67 | 314 | 13.0 | 21.0 | 0.00 | 0.00 | 0.00 | 15 | 1012.1 |
| 20260503225903 | 66 | 311 | 10.0 | 21.0 | 0.00 | 0.00 | 0.00 | 14 | 1012.1 |
| 20260503225404 | 67 | 275 | 12.0 | 20.0 | 0.00 | 0.00 | 0.00 | 14 | 1012.1 |
| 20260503224904 | 67 | 261 | 13.0 | 20.0 | 0.00 | 0.00 | 0.00 | 14 | 1012.2 |
| 20260503224404 | 66 | 358 | 9.0 | 21.0 | 0.00 | 0.00 | 0.00 | 20 | 1012.2 |
| 20260503223904 | 66 | 295 | 10.0 | 21.0 | 0.00 | 0.00 | 0.00 | 15 | 1012.0 |
| 20260503223403 | 67 | 289 | 13.0 | 21.0 | 0.00 | 0.00 | 0.00 | 15 | 1012.1 |
| 20260503222904 | 67 | 323 | 11.0 | 21.0 | 0.00 | 0.00 | 0.00 | 15 | 1012.1 |
| 20260503222403 | 67 | 284 | 10.0 | 20.0 | 0.00 | 0.00 | 0.00 | 16 | 1012.0 |
| 20260503221904 | 67 | 276 | 9.0 | 22.0 | 0.00 | 0.00 | 0.00 | 16 | 1012.3 |
| 20260503221403 | 67 | 327 | 14.0 | 22.0 | 0.00 | 0.00 | 0.00 | 16 | 1012.4 |
| 20260503220903 | 66 | 309 | 9.0 | 12.0 | 0.00 | 0.00 | 0.00 | 17 | 1012.3 |
| 20260503220403 | 65 | 275 | 6.0 | 14.0 | 0.00 | 0.00 | 0.00 | 19 | 1012.3 |
| 20260503215903 | 66 | 296 | 6.0 | 16.0 | 0.00 | 0.00 | 0.00 | 18 | 1012.4 |
| 20260503215404 | 66 | 261 | 8.0 | 20.0 | 0.00 | 0.00 | 0.00 | 18 | 1012.5 |
| 20260503214903 | 66 | 267 | 13.0 | 25.0 | 0.00 | 0.00 | 0.00 | 19 | 1012.5 |
| 20260503213903 | 66 | 239 | 10.0 | 25.0 | 0.00 | 0.00 | 0.00 | 21 | 1012.6 |
| 20260503213404 | 66 | 194 | 10.0 | 18.0 | 0.00 | 0.00 | 0.00 | 21 | 1012.6 |
| 20260503212904 | 66 | 219 | 12.0 | 18.0 | 0.00 | 0.00 | 0.00 | 20 | 1012.8 |
| 20260503212403 | 65 | 263 | 6.0 | 14.0 | 0.00 | 0.00 | 0.00 | 20 | 1012.8 |
| 20260503211903 | 65 | 251 | 11.0 | 20.0 | 0.00 | 0.00 | 0.00 | 20 | 1012.8 |
| 20260503210903 | 65 | 233 | 13.0 | 20.0 | 0.00 | 0.00 | 0.00 | 20 | 1013.0 |
| 20260503210404 | 65 | 228 | 9.0 | 14.0 | 0.00 | 0.00 | 0.00 | 21 | 1012.9 |
| 20260503205403 | 64 | 284 | 9.0 | 26.0 | 0.00 | 0.00 | 0.00 | 22 | 1013.6 |
| 20260503204904 | 63 | 253 | 9.0 | 31.0 | 0.00 | 0.00 | 0.00 | 22 | 1013.5 |
| 20260503203904 | 64 | 245 | 9.0 | 44.0 | 0.00 | 0.00 | 0.00 | 22 | 1013.6 |
| 20260503202903 | 63 | 248 | 30.0 | 44.0 | 0.00 | 0.00 | 0.00 | 25 | 1014.2 |